Home   Weather   Centennial   Past weeks

Flag for USA Past Weather in Centennial, Colorado, USA — Yesterday and Last 2 Weeks

59 °F

Passing clouds.

Feels Like: 58 °F
Forecast: 47 / 75 °F
Wind: 6 mph from Southwest

Location: Centennial Airport

Current Time: Oct 23, 2016 at 7:51:19 PM

Latest Report: Oct 23, 2016 at 6:53 PM

Visibility: 10 mi

Pressure: 30.16 "Hg (24.42 "Hg at 1781m altitude)

Humidity: 28%

Dew Point: 26 °F

Location of CentennialLocation

Past Weather in Centennial — Graph


Centennial Temperature Yesterday

Maximum temperature yesterday: 79 °F (at 2:53 PM)
Minimum temperature yesterday: 41 °F (at 4:53 AM)
Average temperature yesterday: 61 °F

High & Low Weather Summary for the Past Weeks

High85 °F (Oct 16, 2:53 PM)97% (Oct 12, 3:53 AM)30.50 "Hg (Oct 12, 3:53 AM)
Low28 °F (Oct 20, 4:53 AM)8% (Oct 21, 2:53 PM)29.41 "Hg (Oct 17, 4:53 AM)
Average57 °F35%29.97 "Hg
* Reported Oct 8 5:53 PM — Oct 23 5:53 PM, Centennial, Weather by CustomWeather, © 2016

Note: Actual official high and low records may vary slightly from our data, if they occured in-between our weather recording intervals... More about our weather records


Centennial Weather History for the Previous 24 Hours

Scroll right to see more
Time TempWeatherWind HumidityBarometerVisibility
5:53 PM
Sun, Oct 23
64 °FPartly sunny.6 mph23%30.13 "Hg10 mi
4:53 PM68 °FPartly sunny.13 mph20%30.09 "Hg10 mi
3:53 PM75 °FPartly sunny.6 mph13%30.06 "Hg10 mi
2:53 PM75 °FPartly sunny.8 mph13%30.05 "Hg10 mi
1:53 PM71 °FPartly sunny.8 mph16%30.09 "Hg10 mi
12:53 PM66 °FPartly sunny.3 mph19%30.14 "Hg10 mi
11:53 AM62 °FPartly sunny.5 mph22%30.17 "Hg10 mi
10:53 AM58 °FScattered clouds.3 mph26%30.19 "Hg10 mi
9:53 AM53 °FScattered clouds.No wind31%30.22 "Hg10 mi
8:53 AM49 °FScattered clouds.5 mph38%30.21 "Hg10 mi
7:53 AM42 °FPartly sunny.9 mph43%30.20 "Hg10 mi
6:53 AM44 °FPassing clouds.8 mph35%30.16 "Hg10 mi
5:53 AM43 °FPassing clouds.7 mph35%30.12 "Hg10 mi
4:53 AM46 °FPassing clouds.3 mph31%30.05 "Hg10 mi
3:53 AM44 °FPassing clouds.3 mph37%30.03 "Hg10 mi
2:53 AM48 °FPassing clouds.5 mph32%30.01 "Hg10 mi
1:53 AM48 °FPassing clouds.9 mph29%30.01 "Hg10 mi
12:53 AM46 °FPassing clouds.7 mph33%30.00 "Hg10 mi
11:53 PM
Sat, Oct 22
51 °FPassing clouds.5 mph28%29.97 "Hg10 mi
10:53 PM55 °FPassing clouds.8 mph25%29.95 "Hg10 mi
9:53 PM55 °FPassing clouds.8 mph25%29.95 "Hg10 mi
8:53 PM60 °FPassing clouds.10 mph21%29.93 "Hg10 mi
7:53 PM63 °FMild.7 mph19%29.95 "Hg10 mi
Weather by CustomWeather, © 2016

See weather overviewHow to use our weather pages